Miscellaneous Local Product
Issued by NWS Hastings, NE

Home | Current Version | Previous Version | Text Only | Print | Product List | Glossary Off
Versions: 1 2 3 4 5 6 7 8 9 10 11 12 13 14 15 16 17 18 19 20 21 22 23 24 25 26 27 28 29 30 31 32 33 34 35 36 37 38 39 40 41 42 43 44 45 46 47 48 49 50

000
AXUS43 KGID 292302
MISGRI

GID CWA HOURLY WEATHER ROUNDUP
NATIONAL WEATHER SERVICE HASTINGS NE
600 PM CDT FRI APR 29 2016

NOTE: "FAIR" INDICATES FEW OR NO CLOUDS BELOW 12,000 FEET WITH NO
SIGNIFICANT WEATHER AND/OR OBSTRUCTIONS TO VISIBILITY.

...SOUTH CENTRAL NEBRASKA...

CITY           SKY/WX    TMP DP  RH WIND       PRES   REMARKS
GRAND ISLAND   CLOUDY    43  40  89 NE21      29.91F
HASTINGS       CLOUDY    43  39  86 E22G29    29.88F
KEARNEY        CLOUDY    43  37  81 NE23      29.90F
ORD            CLOUDY    44  38  79 NE18G24   29.92F
YORK           CLOUDY    45  41  87 E20G25    29.93F
AURORA         CLOUDY    44  41  89 E21G28    29.91F
LEXINGTON      CLOUDY    43  39  86 NE16      29.90F
HOLDREGE       CLOUDY    43  40  86 NE24G30   29.87F
HEBRON         CLOUDY    47  44  88 NE23      29.87F

...NEBRASKA PANHANDLE...

CITY           SKY/WX    TMP DP  RH WIND       PRES   REMARKS
CHADRON        CLOUDY    41  36  82 E16       29.99S
ALLIANCE       LGT RAIN  38  35  89 NE13      29.93F WCI  30
SCOTTSBLUFF    LGT RAIN  37  36  93 E9        29.96F WCI  31
SIDNEY         SNOW      33  32  96 NE8       29.93F VSB 1/2 WCI  26

...WESTERN AND NORTH CENTRAL NEBRASKA...

CITY           SKY/WX    TMP DP  RH WIND       PRES   REMARKS
VALENTINE      CLOUDY    42  36  79 NE16      29.99F
AINSWORTH      CLOUDY    41  37  87 NE14      29.98F
ONEILL         CLOUDY    43  40  89 NE16      30.00F
BROKEN BOW     CLOUDY    42  38  85 E15G23    29.92F
IMPERIAL       LGT RAIN  39  37  92 N18       29.89S FOG     WCI  30
NORTH PLATTE   CLOUDY    41  38  89 NE14      29.92F
MCCOOK         CLOUDY    43  38  82 NE23      29.84F

...EASTERN NEBRASKA...

CITY           SKY/WX    TMP DP  RH WIND       PRES   REMARKS
NORFOLK        CLOUDY    45  39  79 E14       29.98F
SO SIOUX CITY  CLOUDY    48  40  73 E13       30.05F
TEKAMAH        CLOUDY    48  43  82 E15       30.01F
COLUMBUS       CLOUDY    45  36  70 E17       29.97F
ALBION         CLOUDY    44  39  84 E14       29.97F
OMAHA EPPLEY   CLOUDY    49  43  80 E10       30.00F
OFFUTT AFB     CLOUDY    48  45  87 NE10      29.98F
MILLARD        CLOUDY    48  43  81 E9        30.01F
LINCOLN        CLOUDY    48  41  76 NE17      29.96F
NEBRASKA CITY  LGT RAIN  49  46  90 E15       29.95F
BEATRICE       CLOUDY    48  44  86 NE15G22   29.88F
FALLS CITY     RAIN      51  48  89 NE15      29.92F FOG

...NORTHERN KANSAS...

CITY           SKY/WX    TMP DP  RH WIND       PRES   REMARKS
GOODLAND       SNOW      32  32 100 NW8       29.88R VSB 1/2 WCI  25
HILL CITY      CLOUDY    45  42  89 NE22G28   29.79F
NORTON         CLOUDY    43  36  75 NE20G25   29.80F
PHILLIPSBURG   CLOUDY    46  43  87 NE18G24   29.81F
SMITH CENTER   CLOUDY    45  41  87 NE25G31   29.80F
BELOIT         CLOUDY    46  43  87 NE23G29   29.80R
HAYS           CLOUDY    46  37  71 E24       29.75F
RUSSELL        CLOUDY    48  45  89 E24G36    29.73F
CONCORDIA      CLOUDY    48  44  86 E20G32    29.80F
SALINA         CLOUDY    50  46  86 NE18G26   29.80S
TOPEKA         CLOUDY    51  49  92 NE22G32   29.83F



USA.gov is the U.S. government's official web portal to all federal, state and local government web resources and services.